KHQMKTIW

Guest
Details From KHQM - BOWERMAN
To KTIW - TACOMA NARROWS
Flight Number -
Tags generated
Created
Modified
Stats Distance 59 nm / 108 km
Max Altitude 6,100 ft / 1,859 m
Waypoints 3
Social Downloads 0
Likes 0
Share VATSIM

Download

Looking for another format? Having issues loading an existing format? Contact us
Advertisement - Login to hide

Notes

Basic altitude profile: - Ascent Rate: 2500ft/min - Ascent Speed: 250kts - Cruise Altitude: 35000ft - Cruise Speed: 420kts - Descent Rate: 1500ft/min - Descent Speed: 250kts Options: - Use NATs: yes - Use PACOTS: yes - Use low airways: yes - Use high airways: yes

Route

KHQM FEPOT KTIW

ID Type Via Altitude Latitude Longitude Leg Dist Tot Dist Heading (true) Name
O KHQM APT - 0 ft / 0 m 46.97120˚ -123.93656˚ - 0 nm - BOWERMAN
FEPOT FIX - 6,100 ft / 1,859 m 47.08083˚ -123.21889˚ 30 nm 30 nm 77° / 78° -
O KTIW APT - 0 ft / 0 m 47.26793˚ -122.57811˚ 28 nm 58 nm 67° / 67° TACOMA NARROWS

Altitude Profile

Advertisement - Login to hide

KHQM

Details ICAO KHQM
Name BOWERMAN
Region United States
Timezone America/Los_Angeles (UTC-7.0)
Stats Elevation 18 ft / 5 m (AMSL)
Location 46.971196° -123.936564°
Runways 1
Magnetic Variation 15.777° E

METAR

KHQM 271953Z AUTO 25012KT 8SM CLR 17/09 A3026 RMK AO2 SLP251 T01720094

Decode

TAF

KHQM 271747Z 2718/2818 25011G18KT P6SM SKC FM280300 26006KT P6SM SCT009 OVC012

Decode

Departure Runways

ID Width Length Bearing (true) Bearing (mag) Surface Threshold Offset Overrun Length
06 151 ft / 46 m 4,987 ft / 1,520 m 79.79° 64.01° Asphalt 0 ft / 0 m 0 ft / 0 m
24 151 ft / 46 m 4,987 ft / 1,520 m 259.81° 244.03° Asphalt 0 ft / 0 m 0 ft / 0 m

KTIW

Details ICAO KTIW (TIW)
Name TACOMA NARROWS
Region United States
Timezone America/Los_Angeles (UTC-7.0)
Stats Elevation 292 ft / 89 m (AMSL)
Location 47.267930° -122.578113°
Runways 1
Magnetic Variation 15.626° E

METAR

KTIW 271953Z 23006KT 10SM CLR 19/08 A3023 RMK AO2 SLP235 T01890083 $

Decode

TAF

Not found

Destination Runways

ID Width Length Bearing (true) Bearing (mag) Surface Threshold Offset Overrun Length
17 150 ft / 46 m 5,004 ft / 1,525 m 186.99° 171.36° Asphalt 0 ft / 0 m 0 ft / 0 m
35 150 ft / 46 m 5,004 ft / 1,525 m 6.99° 351.36° Asphalt 0 ft / 0 m 0 ft / 0 m

Approach Navaids

Runway Type Ident Frequency Range Bearing (true) Bearing (mag) Slope Elevation
17 Localiser ITIW 109.10 MHz 18 nm / 33 km 186.99° 171.36° - 292 ft / 89 m (AMSL)
17 Glidescope ITIW 109.10 MHz 10 nm / 19 km 186.99° 171.36° 3.00° 292 ft / 89 m (AMSL)

Popular Alternatives